Stations météo

Publicité
Toulouse/Blagnac, France (7630): Température de l'air & dewpoint: 07.12.2018 12:00:00 - 13.12.2018 12:00:00 (CET)Toulouse/Blagnac, France (7630): Température de l'air 5cm: 07.12.2018 12:00:00 - 13.12.2018 12:00:00 (CET)Toulouse/Blagnac, France (7630): Température de l'air -20cm & Température de l'air -100cm: 07.12.2018 12:00:00 - 13.12.2018 12:00:00 (CET)Toulouse/Blagnac, France (7630): Vitesse du vent & gusts: 07.12.2018 12:00:00 - 13.12.2018 12:00:00 (CET)Toulouse/Blagnac, France (7630): Direction du vent: 07.12.2018 12:00:00 - 13.12.2018 12:00:00 (CET)Toulouse/Blagnac, France (7630): reduced air pressure: 07.12.2018 12:00:00 - 13.12.2018 12:00:00 (CET)Toulouse/Blagnac, France (7630): visibility: 07.12.2018 12:00:00 - 13.12.2018 12:00:00 (CET)Toulouse/Blagnac, France (7630): Ensoleillement: 07.12.2018 12:00:00 - 13.12.2018 12:00:00 (CET)Toulouse/Blagnac, France (7630): Quantités de précipitations: 07.12.2018 12:00:00 - 13.12.2018 12:00:00 (CET)
Date & Time tt [°C] td [°C] tt 5cm [°C] tt -20cm [°C] tt -100cm [°C] ff [km/h] ff [knt] fx [km/h] fx [knt] dd ppp [hPa] vv [km] sd [min] rr [mm]
13.12.2018 12:00:00 - - - - - - - - - - - - - -
13.12.2018 11:00:00 6,6 3,6 5,9 9,3 13,0 18 10 36 19 SSE 1007,6 14 0 0,0
13.12.2018 10:00:00 6,4 2,7 5,9 9,3 13,0 24 13 39 21 SE 1007,5 25 0 0,0
13.12.2018 09:00:00 6,5 3,3 5,3 9,3 13,0 20 11 32 17 SE 1007,5 28 0 0,0
13.12.2018 08:00:00 6,4 3,5 5,2 9,3 13,0 18 10 27 15 SSE 1007,9 38 0 0,0
13.12.2018 07:00:00 6,9 4,6 5,8 9,3 13,0 15 8 25 14 SE 1008,1 36 0 0,0
13.12.2018 06:00:00 6,9 4,7 5,8 9,4 13,0 11 6 21 12 ESE 1008,6 29 0 0,0
13.12.2018 05:00:00 6,9 5,0 6,0 9,4 13,0 11 6 22 12 ESE 1009,6 13 0 0,0
13.12.2018 04:00:00 6,6 5,2 5,5 9,4 13,0 7 4 14 8 E 1010,3 10 0 0,0
13.12.2018 03:00:00 6,5 5,0 5,5 9,4 13,1 7 4 15 8 ESE 1011,6 11 0 0,0
13.12.2018 02:00:00 6,7 5,6 5,8 9,4 13,0 9 5 16 9 E 1012,1 11 0 0,0
13.12.2018 01:00:00 6,6 5,9 4,3 9,5 13,1 8 4 13 7 ESE 1013,3 3,7 0 0,0
13.12.2018 00:00:00 6,4 5,8 5,3 9,5 13,0 5 3 19 10 ESE 1014,3 4,3 0 0,0
12.12.2018 23:00:00 6,4 5,8 4,4 9,5 13,1 9 5 16 9 E 1014,9 2,2 0 0,0
12.12.2018 22:00:00 6,4 5,8 4,1 9,5 13,1 6 3 11 6 ENE 1015,9 2,1 0 0,0
12.12.2018 21:00:00 6,9 6,3 6,1 9,5 13,1 6 3 17 9 E 1016,7 0,3 0 0,0
12.12.2018 20:00:00 7,4 6,7 3,8 9,5 13,1 9 5 13 7 NE 1017,2 0,4 0 0,0
12.12.2018 19:00:00 7,7 6,8 6,0 9,5 13,1 7 4 20 11 SE 1017,3 5 0 1,0
12.12.2018 18:00:00 8,6 7,4 7,7 9,4 13,1 10 6 17 9 NE 1018,1 2,0 0 0,4
12.12.2018 17:00:00 9,1 7,5 8,6 9,3 13,1 8 5 14 7 E 1017,9 8 0 0,0
12.12.2018 16:00:00 9,5 7,9 9,9 9,2 13,2 4 2 9 5 E 1018,2 9 0 0,0
12.12.2018 15:00:00 9,8 7,7 10,6 9,2 13,1 4 2 14 7 E 1018,6 18 0 0,0
12.12.2018 14:00:00 9,4 7,8 9,7 9,1 13,1 12 6 34 18 WNW 1019,6 17 0 0,0
12.12.2018 13:00:00 9,1 8,0 9,0 9,1 13,2 18 10 31 17 WNW 1020,2 10 0 0,0
12.12.2018 12:00:00 8,1 7,5 6,9 9,0 13,2 6 3 14 8 W 1020,5 5 0 0,0
12.12.2018 11:00:00 6,5 5,8 6,2 9,0 13,2 4 2 8 4 E 1021,0 3,0 0 0,8
12.12.2018 10:00:00 6,0 5,0 5,5 9,0 13,2 5 3 8 4 SE 1020,9 1,5 0 0,4
12.12.2018 09:00:00 5,5 4,1 4,6 9,1 13,2 4 2 8 5 ENE 1020,9 4,0 0 0,0
12.12.2018 08:00:00 4,6 3,6 1,8 9,2 13,2 6 3 9 5 E 1021,1 6 0 0,0
12.12.2018 07:00:00 2,9 2,0 -1,0 9,2 13,2 3 2 10 6 ENE 1021,3 4,7 0 0,0
12.12.2018 06:00:00 2,6 1,9 -1,0 9,3 13,2 5 3 7 4 E 1021,2 5 0 0,0
12.12.2018 05:00:00 2,3 1,6 -0,7 9,4 13,2 4 2 9 5 SSE 1021,7 5 0 0,0
12.12.2018 04:00:00 1,9 1,0 -0,4 9,5 13,2 5 3 9 5 SSW 1022,1 4,4 0 0,0
12.12.2018 03:00:00 2,1 1,4 -0,4 9,5 13,2 6 3 9 5 SSW 1022,3 4,0 0 0,0
12.12.2018 02:00:00 2,4 1,7 -0,8 9,6 13,2 4 2 8 4 SSE 1021,7 2,6 0 0,0
12.12.2018 01:00:00 2,0 1,1 -1,3 9,7 13,2 6 4 9 5 S 1022,2 3,3 0 0,0
12.12.2018 00:00:00 2,2 1,2 -1,0 9,8 13,2 5 3 11 6 SSE 1021,7 3,5 0 0,0
11.12.2018 23:00:00 2,5 1,2 -0,7 10,0 13,3 9 5 11 6 SSW 1021,6 3,4 0 0,0
11.12.2018 22:00:00 3,4 2,1 -0,8 10,0 13,2 4 2 8 5 S 1021,6 2,8 0 0,0
11.12.2018 21:00:00 4,1 2,3 -0,4 10,1 13,2 4 2 8 5 WSW 1021,4 7 0 0,0
11.12.2018 20:00:00 4,5 2,0 0,3 10,1 13,2 3 1 11 6 WNW 1021,6 6 0 0,0
11.12.2018 19:00:00 5,0 3,0 3,1 10,2 13,2 7 4 16 9 NW 1021,3 4,2 0 0,0
11.12.2018 18:00:00 5,4 3,1 3,2 10,1 13,2 9 5 13 7 NW 1021,2 11 0 0,0
11.12.2018 17:00:00 6,9 3,3 5,7 10,1 13,2 10 6 15 8 NW 1021,4 13 27 0,0
11.12.2018 16:00:00 8,6 3,0 11,3 10,0 13,2 4 2 11 6 WNW 1021,2 17 60 0,0
11.12.2018 15:00:00 7,8 2,5 10,7 10,0 13,2 6 4 13 7 NE 1021,6 16 60 0,0
11.12.2018 14:00:00 6,6 3,7 10,6 9,9 13,2 6 4 14 8 NNE 1022,9 8 55 0,0
11.12.2018 13:00:00 5,5 4,9 7,4 9,9 13,2 3 2 8 4 N 1023,8 6 32 0,0
11.12.2018 12:00:00 4,3 4,0 6,1 9,9 13,3 3 1 10 6 SSW 1024,4 3,5 1 0,0
11.12.2018 11:00:00 3,3 3,0 3,9 10,0 13,3 3 1 8 4 S 1025,2 0,4 0 0,0
11.12.2018 10:00:00 2,7 2,4 2,6 10,0 13,2 5 3 9 5 SSW 1025,3 0,2 0 0,0
11.12.2018 09:00:00 2,0 1,7 2,3 10,0 13,2 3 2 7 4 E 1025,6 0,1 0 0,0
11.12.2018 08:00:00 2,3 1,9 2,5 10,1 13,2 4 2 8 4 S 1025,5 0,1 0 0,0
11.12.2018 07:00:00 2,6 2,2 2,2 10,1 13,2 4 2 6 3 S 1026,1 0,1 0 0,0
11.12.2018 06:00:00 3,0 2,6 2,7 10,3 13,2 3 2 5 3 SSE 1026,9 0,1 0 0,0
11.12.2018 05:00:00 3,0 2,4 -0,1 10,3 13,2 3 2 4 2 WSW 1027,3 0,1 0 0,0
11.12.2018 04:00:00 2,7 2,0 -0,4 10,5 13,3 2 1 6 4 NNW 1027,6 0,2 0 0,0
11.12.2018 03:00:00 3,1 2,1 -0,6 10,6 13,3 0 0 8 5 N 1028,1 0,2 0 0,0
11.12.2018 02:00:00 3,6 2,4 0,5 10,7 13,3 5 3 8 4 NNW 1028,4 2,7 0 0,0
11.12.2018 01:00:00 4,1 3,2 -0,7 10,8 13,3 5 3 6 3 NW 1028,8 2,3 0 0,0
11.12.2018 00:00:00 4,1 3,1 -0,5 10,9 13,3 2 1 8 4 SSW 1029,6 2,2 0 0,0
10.12.2018 23:00:00 4,9 3,7 0,1 11,0 13,3 4 2 8 4 S 1029,9 3,2 0 0,0
10.12.2018 22:00:00 5,8 4,0 2,2 11,0 13,3 5 3 11 6 SSW 1030,6 4,8 0 0,0
10.12.2018 21:00:00 6,9 4,6 4,7 11,1 13,3 8 4 19 10 NW 1030,8 10 0 0,0
10.12.2018 20:00:00 7,6 4,4 4,6 11,1 13,2 6 4 12 7 NW 1031,1 14 0 0,0
10.12.2018 19:00:00 8,0 4,4 4,2 11,2 13,3 6 4 15 8 WNW 1030,8 15 0 0,0
10.12.2018 18:00:00 9,5 4,9 7,4 11,2 13,3 10 5 21 11 NNW 1030,7 19 0 0,0
10.12.2018 17:00:00 10,5 4,2 9,3 11,1 13,2 15 8 26 14 NNW 1030,9 26 29 0,0
10.12.2018 16:00:00 11,5 5,6 12,7 11,0 13,3 13 7 26 14 N 1030,9 8 53 0,0
10.12.2018 15:00:00 11,4 6,3 12,4 11,0 13,2 17 9 34 18 NNW 1031,2 14 6 0,0
10.12.2018 14:00:00 12,3 5,5 11,9 10,9 13,3 16 9 32 17 NW 1031,7 12 14 0,0
10.12.2018 13:00:00 11,6 6,5 12,5 10,9 13,3 21 12 32 17 NW 1032,4 12 43 0,0
10.12.2018 12:00:00 11,0 8,0 11,6 10,9 13,3 16 9 30 16 WNW 1033,0 11 4 0,0
10.12.2018 11:00:00 10,4 7,8 11,0 10,9 13,3 19 10 28 15 WNW 1033,7 12 31 0,0
10.12.2018 10:00:00 9,7 8,0 8,8 10,9 13,3 16 9 24 13 WNW 1033,6 10 19 0,0
10.12.2018 09:00:00 9,1 7,4 8,3 10,9 13,3 15 8 26 14 WNW 1033,3 11 0 0,0
10.12.2018 08:00:00 8,9 7,2 7,5 11,0 13,3 17 9 27 14 W 1032,9 11 0 0,0
10.12.2018 07:00:00 8,7 7,1 7,1 11,0 13,3 18 10 29 15 W 1032,7 11 0 0,0
10.12.2018 06:00:00 8,2 6,8 7,1 11,1 13,3 17 9 30 16 W 1032,8 11 0 0,0
10.12.2018 05:00:00 8,6 6,9 7,6 11,1 13,3 21 11 34 19 W 1032,7 12 0 0,0
10.12.2018 04:00:00 9,2 7,1 7,9 11,1 13,3 21 11 32 17 W 1032,9 14 0 0,0
10.12.2018 03:00:00 9,2 7,3 7,7 11,2 13,3 22 12 34 18 W 1033,2 13 0 0,0
10.12.2018 02:00:00 9,1 7,2 8,0 11,2 13,3 23 12 36 19 W 1033,1 15 0 0,0
10.12.2018 01:00:00 9,6 7,4 7,8 11,3 13,3 23 12 35 19 W 1033,0 19 0 0,0
10.12.2018 00:00:00 9,2 6,6 8,1 11,3 13,3 21 11 39 21 W 1033,2 26 0 0,0
09.12.2018 23:00:00 9,8 7,2 8,8 11,4 13,3 26 14 43 23 W 1032,6 17 0 0,0
09.12.2018 22:00:00 10,0 7,4 8,7 11,4 13,3 27 15 41 22 W 1032,1 8 0 0,0
09.12.2018 21:00:00 10,2 8,0 8,7 11,4 13,3 23 12 34 18 W 1031,7 10 0 0,0
09.12.2018 20:00:00 10,3 8,1 8,8 11,5 13,3 22 12 35 19 W 1031,5 12 0 0,0
09.12.2018 19:00:00 10,0 7,6 9,0 11,4 13,3 25 13 44 24 W 1030,5 13 0 0,0
09.12.2018 18:00:00 10,3 8,2 9,4 11,5 13,3 31 17 60 33 W 1029,2 15 0 0,2
09.12.2018 17:00:00 10,6 8,7 9,4 11,4 13,3 32 18 55 30 W 1028,5 9 0 1,0
09.12.2018 16:00:00 10,2 8,3 9,4 11,4 13,3 30 16 49 26 WNW 1028,4 3,2 0 0,6
09.12.2018 15:00:00 10,3 8,2 9,6 11,4 13,3 33 18 71 38 WNW 1027,8 5 0 1,2
09.12.2018 14:00:00 12,7 9,0 10,9 11,3 13,3 29 16 67 36 W 1026,9 8 1 0,2
09.12.2018 13:00:00 13,3 7,7 13,2 11,3 13,3 34 18 61 33 W 1027,0 8 0 0,0
09.12.2018 12:00:00 13,2 7,8 11,9 11,3 13,3 37 20 55 30 W 1026,8 15 0 0,0
09.12.2018 11:00:00 13,3 7,7 13,1 11,3 13,3 41 22 63 34 W 1027,2 9 0 0,0
09.12.2018 10:00:00 13,3 8,1 12,2 11,2 13,3 36 19 51 27 W 1026,9 13 0 0,0
09.12.2018 09:00:00 12,6 8,3 11,8 11,3 13,3 24 13 51 27 W 1026,9 25 0 0,0
09.12.2018 08:00:00 12,5 8,8 11,6 11,2 13,3 26 14 44 24 W 1026,6 28 0 0,0
09.12.2018 07:00:00 12,5 8,8 11,1 11,2 13,3 30 16 50 27 W 1026,4 30 0 0,0
09.12.2018 06:00:00 12,2 9,4 10,7 11,2 13,3 26 14 40 21 W 1026,0 43 0 0,0
09.12.2018 05:00:00 11,9 9,5 10,2 11,2 13,3 24 13 37 20 W 1026,2 15 0 0,0
09.12.2018 04:00:00 11,7 9,1 10,8 11,2 13,3 18 10 40 22 W 1026,3 45 0 0,0
09.12.2018 03:00:00 12,2 9,0 11,4 11,2 13,3 19 10 42 23 W 1026,4 16 0 0,0
09.12.2018 02:00:00 12,7 7,8 11,3 11,2 13,3 18 10 36 20 W 1026,1 53 0 0,0
09.12.2018 01:00:00 12,7 4,4 11,0 11,3 13,3 18 10 32 17 W 1026,2 54 0 0,0
09.12.2018 00:00:00 12,1 3,6 10,4 11,3 13,3 11 6 22 12 W 1026,2 48 0 0,0
08.12.2018 23:00:00 11,4 4,6 9,6 11,3 13,3 12 7 28 15 W 1026,1 38 0 0,0
08.12.2018 22:00:00 11,2 5,3 9,2 11,3 13,3 16 9 28 15 W 1026,2 31 0 0,0
08.12.2018 21:00:00 9,9 6,4 6,8 11,3 13,3 8 5 13 7 SW 1026,1 17 0 0,0
08.12.2018 20:00:00 9,9 6,6 7,5 11,4 13,3 5 3 16 9 SSW 1026,4 17 0 0,0
08.12.2018 19:00:00 10,8 6,9 9,4 11,3 13,3 10 6 27 14 W 1026,4 24 0 0,0
08.12.2018 18:00:00 10,5 6,8 9,3 11,4 13,3 15 8 36 20 W 1027,0 27 0 0,0
08.12.2018 17:00:00 11,4 6,7 10,4 11,3 13,3 22 12 41 22 W 1027,5 30 48 0,0
08.12.2018 16:00:00 12,5 7,2 12,5 11,2 13,3 22 12 39 21 W 1027,4 23 47 0,0
08.12.2018 15:00:00 11,6 8,4 10,2 11,2 13,3 23 12 40 22 W 1028,0 20 13 0,0
08.12.2018 14:00:00 12,4 6,9 12,2 11,1 13,3 25 13 41 22 W 1028,3 11 5 0,0
08.12.2018 13:00:00 12,4 6,4 12,7 11,1 13,2 29 16 46 25 W 1028,6 11 24 0,0
08.12.2018 12:00:00 12,0 7,1 12,0 11,1 13,3 26 14 43 23 W 1029,3 19 60 0,0
08.12.2018 11:00:00 10,9 6,8 10,8 11,2 13,3 28 15 45 25 W 1029,5 23 51 0,0
08.12.2018 10:00:00 9,9 6,8 8,6 11,3 13,3 19 11 32 17 W 1028,7 20 60 0,0
08.12.2018 09:00:00 8,7 6,1 6,9 11,3 13,3 22 12 33 18 W 1028,7 20 20 0,0
08.12.2018 08:00:00 8,2 6,0 6,8 11,4 13,3 18 10 30 16 W 1028,6 22 0 0,0
08.12.2018 07:00:00 8,4 6,2 7,1 11,4 13,2 23 12 33 18 W 1028,4 22 0 0,0
08.12.2018 06:00:00 8,8 6,8 7,8 11,5 13,3 22 12 34 18 W 1028,0 20 0 0,2
08.12.2018 05:00:00 8,7 6,3 7,0 11,6 13,3 20 11 29 16 W 1027,7 28 0 0,0
08.12.2018 04:00:00 8,7 6,3 7,3 11,6 13,3 19 10 29 16 W 1027,5 24 0 0,0
08.12.2018 03:00:00 8,6 6,9 7,2 11,7 13,3 18 10 30 16 W 1027,6 17 0 0,0
08.12.2018 02:00:00 8,8 6,9 7,6 11,8 13,3 18 10 28 15 W 1027,2 18 0 0,0
08.12.2018 01:00:00 9,3 7,2 8,0 11,8 13,3 18 10 33 18 W 1027,5 18 0 0,0
08.12.2018 00:00:00 9,5 7,8 8,3 11,9 13,3 18 10 33 18 W 1027,4 19 0 0,0
07.12.2018 23:00:00 9,5 7,4 8,2 11,9 13,2 19 10 34 18 W 1026,6 20 0 0,0
07.12.2018 22:00:00 9,2 6,8 8,0 12,0 13,3 23 13 57 31 W 1026,7 19 0 1,6
07.12.2018 21:00:00 11,7 10,1 10,6 12,0 13,3 22 12 46 25 WNW 1026,2 4,6 0 1,2
07.12.2018 20:00:00 11,6 10,0 10,8 11,9 13,2 22 12 47 25 WNW 1024,9 20 0 1,2
07.12.2018 19:00:00 13,3 9,2 11,4 11,9 13,2 34 18 50 27 W 1023,8 17 0 0,0
07.12.2018 18:00:00 14,6 7,4 13,7 11,9 13,3 23 12 46 25 W 1023,3 56 0 0,0
07.12.2018 17:00:00 14,5 6,6 13,4 11,9 13,3 16 9 34 18 WSW 1022,5 50 0 0,0
07.12.2018 16:00:00 14,4 6,0 14,1 11,8 13,2 13 7 25 14 SW 1022,3 51 0 0,0
07.12.2018 15:00:00 14,6 5,9 15,1 11,7 13,2 16 8 31 17 W 1022,6 20 46 0,0
07.12.2018 14:00:00 14,6 5,7 14,2 11,7 13,3 21 11 31 17 WNW 1023,0 1,4 51 0,0
07.12.2018 13:00:00 14,3 5,6 14,4 11,6 13,2 15 8 36 19 WSW 1023,5 41 46 0,0
07.12.2018 12:00:00 14,5 6,6 13,8 11,6 13,3 13 7 24 13 W 1024,9 20 36 0,0

tt = Température de l'air
td = dewpoint
tt 5cm = Température de l'air 5cm
tt -20cm = Température de l'air -20cm
tt -100cm = Température de l'air -100cm
ff = Vitesse du vent
fx = gusts
dd = Direction du vent
ppp = reduced air pressure
vv = visibility
sd = Ensoleillement
rr = Quantités de précipitations

stations d'obs. à proximité